Terminal Aerodrome Forecast
Issued by NWS

Home | Current Version | Previous Version | Text Only | Print | Product List | Glossary On
Versions: 1 2 3 4 5 6 7 8 9 10 11 12 13 14 15 16 17 18 19 20 21 22 23
000
FTUS41 KOKX 232300
TAFHPN
TAF
KHPN 232331Z 2400/2424 31019G27KT P6SM FEW040
     FM240200 32016G25KT P6SM SKC
     FM241400 32024G35KT P6SM SKC
     FM242200 33018G26KT P6SM SKC
      AMD NOT SKED=

USA.gov is the U.S. government's official web portal to all federal, state and local government web resources and services.